DW2465 Weather Reports


Display with metric or nautical units.
time (UTC)temp
F
wind
direction
speed
MPH
gust
MPH
rain 1hr
in
rain 24hr
in
rain mn
in
humidity
%
barometer
mb
20191015234611 43 309 4.0 9.0 0.01 0.01 0.01 90 1014.5
20191015233146 43 309 5.0 9.0 0.01 0.01 0.01 89 1014.3
20191015231600 43 273 7.0 14.0 0.00 0.00 0.00 88 1014.2
20191015230045 44 329 6.0 13.0 0.00 0.00 0.00 86 1014.1
20191015224613 45 310 5.0 13.0 0.00 0.00 0.00 84 1013.6
20191015223048 45 324 6.0 12.0 0.00 0.00 0.00 81 1013.6
20191015221544 46 317 5.0 17.0 0.00 0.00 0.00 78 1013.2
20191015220025 47 360 7.0 17.0 0.00 0.00 0.00 73 1013.2
20191015214526 47 280 9.0 21.0 0.00 0.00 0.00 69 1012.8
20191015213108 48 275 7.0 13.0 0.00 0.00 0.00 68 1012.6
20191015211554 48 298 7.0 19.0 0.00 0.00 0.00 67 1012.3
20191015210023 48 335 9.0 16.0 0.00 0.00 0.00 68 1012.3
20191015204518 48 296 6.0 15.0 0.00 0.00 0.00 67 1012.1
20191015203100 48 292 8.0 16.0 0.00 0.00 0.00 67 1011.8
20191015201509 49 295 6.0 20.0 0.00 0.00 0.00 66 1011.5
20191015200017 49 296 5.0 17.0 0.00 0.00 0.00 67 1011.4
20191015194519 49 285 6.0 17.0 0.00 0.00 0.00 67 1011.3
20191015193023 49 308 9.0 16.0 0.00 0.00 0.00 67 1011.0
20191015191525 49 313 7.0 12.0 0.00 0.00 0.00 68 1010.9
20191015190015 49 294 9.0 18.0 0.00 0.00 0.00 66 1010.7
20191015184509 49 260 9.0 15.0 0.00 0.00 0.00 64 1010.5
20191015183006 50 333 7.0 18.0 0.00 0.00 0.00 65 1010.5
20191015181505 50 293 8.0 18.0 0.00 0.00 0.00 65 1010.4
20191015180005 50 332 9.0 16.0 0.00 0.00 0.00 65 1010.3
20191015174502 49 306 4.0 17.0 0.00 0.00 0.00 69 1010.4
20191015173217 48 290 4.0 13.0 0.00 0.00 0.00 71 1010.4
20191015170303 49 338 7.0 14.0 0.00 0.00 0.00 72 1009.9
20191015164659 47 290 8.0 15.0 0.00 0.00 0.00 76 1009.9
20191015163153 45 320 7.0 14.0 0.00 0.00 0.00 79 1009.9
20191015161627 45 287 6.0 16.0 0.00 0.00 0.00 81 1009.8
20191015160150 44 314 6.0 15.0 0.00 0.00 0.00 84 1009.6
20191015154639 44 289 10.0 16.0 0.00 0.00 0.00 85 1009.2
20191015153133 43 304 6.0 12.0 0.00 0.00 0.00 90 1009.2
20191015151608 42 319 8.0 13.0 0.00 0.00 0.00 93 1009.0
20191015150124 41 316 6.0 12.0 0.00 0.00 0.00 93 1008.8
20191015144625 41 287 6.0 13.0 0.00 0.00 0.00 95 1008.6
20191015143150 40 304 3.0 8.0 0.00 0.00 0.00 95 1008.5
20191015141615 40 300 5.0 11.0 0.00 0.00 0.00 95 1008.6
20191015140120 40 325 4.0 9.0 0.00 0.00 0.00 95 1008.1
20191015134612 40 323 5.0 8.0 0.00 0.00 0.00 95 1008.3
20191015133128 40 311 4.0 8.0 0.00 0.00 0.00 95 1008.3
20191015131600 40 315 2.0 8.0 0.00 0.00 0.00 95 1008.3
20191015130138 39 320 3.0 5.0 0.00 0.00 0.00 95 1008.2
20191015124648 39 313 3.0 5.0 0.00 0.00 0.00 95 1008.2
20191015123132 39 312 3.0 8.0 0.00 0.00 0.00 95 1008.2
20191015121719 39 309 4.0 9.0 0.00 0.00 0.00 95 1007.8
20191015120135 39 300 4.0 11.0 0.00 0.00 0.00 94 1008.3
20191015113107 39 325 4.0 9.0 0.00 0.00 0.00 94 1007.8
20191015111605 40 333 2.0 6.0 0.00 0.00 0.00 93 1007.7
20191015110126 40 73 3.0 5.0 0.00 0.00 0.00 93 1007.5
20191015104540 40 86 2.0 4.0 0.00 0.00 0.00 93 1007.3
20191015103127 41 88 2.0 4.0 0.00 0.00 0.00 93 1007.3
20191015101535 41 88 2.0 4.0 0.00 0.00 0.00 92 1007.2
20191015100052 41 88 2.0 4.0 0.00 0.00 0.00 92 1007.4
20191015094551 42 88 0.0 3.0 0.00 0.00 0.00 91 1007.4
20191015093107 42 81 2.0 8.0 0.00 0.00 0.00 90 1007.3
20191015091526 42 98 2.0 6.0 0.00 0.00 0.00 91 1007.5
20191015090044 42 92 4.0 10.0 0.00 0.00 0.00 91 1007.3
20191015084515 43 102 6.0 10.0 0.00 0.00 0.00 91 1007.5
20191015083010 43 76 4.0 11.0 0.00 0.00 0.00 91 1007.9
20191015081505 43 66 2.0 6.0 0.00 0.00 0.00 91 1008.3
20191015080007 43 82 3.0 6.0 0.00 0.00 0.00 90 1008.6
20191015074739 43 86 1.0 8.0 0.00 0.00 0.00 89 1009.2
20191015073127 43 40 3.0 7.0 0.00 0.00 0.00 86 1009.7
20191015071647 44 16 4.0 11.0 0.00 0.00 0.00 82 1010.0
20191015070302 46 65 2.0 6.0 0.00 0.00 0.00 76 1009.0
20191015064601 46 95 3.0 9.0 0.00 0.00 0.00 74 1009.0
20191015063136 46 68 4.0 10.0 0.00 0.00 0.00 74 1009.6
20191015061621 46 66 2.0 10.0 0.00 0.00 0.00 74 1009.8
20191015060125 45 78 4.0 8.0 0.00 0.00 0.00 75 1010.2
20191015054559 45 88 4.0 9.0 0.00 0.00 0.00 74 1010.7
20191015053043 45 82 3.0 11.0 0.00 0.00 0.00 75 1011.0
20191015051552 45 88 4.0 10.0 0.00 0.00 0.00 76 1011.3
20191015050055 44 55 3.0 7.0 0.00 0.00 0.00 77 1011.8
20191015044608 44 78 3.0 6.0 0.00 0.00 0.00 76 1011.9
20191015043024 44 102 1.0 8.0 0.00 0.00 0.00 76 1012.1
20191015041552 45 67 4.0 10.0 0.00 0.00 0.00 74 1012.3
20191015040030 45 70 4.0 8.0 0.00 0.00 0.00 73 1012.5
20191015034521 45 70 3.0 8.0 0.00 0.00 0.00 73 1012.7
20191015033036 45 85 3.0 7.0 0.00 0.00 0.00 72 1012.8
20191015031517 45 94 3.0 9.0 0.00 0.00 0.00 73 1012.8
20191015030016 45 91 4.0 8.0 0.00 0.00 0.00 75 1012.9
20191015024542 43 90 3.0 6.0 0.00 0.00 0.00 82 1013.0
20191015023012 43 84 0.0 1.0 0.00 0.00 0.00 83 1013.1
20191015021517 42 84 0.0 1.0 0.00 0.00 0.00 81 1012.9
20191015020033 43 84 0.0 2.0 0.00 0.00 0.00 79 1012.8
20191015014513 43 84 0.0 2.0 0.00 0.00 0.00 77 1013.0
20191015013023 44 84 0.0 2.0 0.00 0.00 0.00 72 1013.0
20191015011518 44 84 0.0 2.0 0.00 0.00 0.00 72 1012.9
20191015010017 44 84 0.0 3.0 0.00 0.00 0.00 73 1012.9
20191015004513 44 84 0.0 4.0 0.00 0.00 0.00 73 1012.6
20191015003007 44 84 0.0 6.0 0.00 0.00 0.00 72 1012.4
20191015001505 44 87 0.0 6.0 0.00 0.00 0.00 71 1012.5
20191015000012 45 82 1.0 3.0 0.00 0.00 0.00 70 1012.5